Location: Chin
(49.7667°N, 112.4500°W)
Time: 11:08:55
(UTC+00:00)

N. Korean satellite - Pass Details

Date: 08 December 2021
Orbit: 447 x 490 km, 97.3° (Epoch: 27 January)

Event Time Altitude Azimuth Distance (km) Brightness Sun altitude
Rises 12:18:05 0° 21° (NNE) 2,465 10.4 -27.3°
Reaches altitude 10° 12:20:17 10° 32° (NNE) 1,586 9.5 -27.0°
Maximum altitude 12:23:20 31° 96° (E) 814 8.2 -26.5°
Drops below altitude 10° 12:26:23 10° 161° (SSE) 1,574 9.4 -26.0°
Sets 12:28:33 0° 172° (S) 2,444 10.3 -25.6°
